Tracking 28052 objects as of 24-Sep-2023
HD Live streaming from Space Station
objects crossing your sky now

STARLINK-6207

Track STARLINK-6207 now!
10-day predictions
STARLINK-6207 is classified as:


NORAD ID: 56900
Int'l Code: 2023-083AA
Perigee: 565.5 km
Apogee: 566.9 km
Inclination: 43.0 °
Period: 95.8 minutes
Semi major axis: 6937 km
RCS: Unknown
Launch date: June 12, 2023
Source: United States (US)
Launch site: AIR FORCE EASTERN TEST RANGE (AFETR)
Your satellite tracking list
Your tracking list is empty




NASA's NSSDC Master Catalog

Two Line Element Set (TLE):
1 56900U 23083AA  23267.10041108 -.00001416  00000-0 -89755-4 0  9993
2 56900  43.0000 266.5395 0000977 246.6243 113.4497 15.02536460 15990
Source of the keplerian elements: AFSPC